Location: Centerville
(32.8776°N, 96.6203°W)
Time: 00:39:04
(UTC+00:00)

Cosmos 2082 Rocket - Pass Details

Date: 17 June 2021
Orbit: 832 x 854 km, 71.0° (Epoch: 01 August)

Event Time Altitude Azimuth Distance (km) Brightness Sun altitude
Rises 10:30:18 0° 187° (S) 3,363 4.9 -9.3°
Reaches altitude 10° 10:32:46 10° 182° (S) 2,431 4.2 -8.9°
Maximum altitude 10:38:10 54° 106° (ESE) 1,006 2.9 -8.0°
Drops below altitude 10° 10:43:36 10° 31° (NNE) 2,443 5.8 -7.0°
Sets 10:46:05 0° 27° (NNE) 3,381 6.5 -6.6°
